COSMOS 2520 (42907 NORAD) Tracking and Keplerian Element Data

This shows tracking and keplerian element data for the satellite.

Feedback or suggestion? Click here.




ElementValue
Catalog42907
NameCOSMOS 2520
Epoch Orbit459
Epoch Day317.73581602
Epoch Year2018
RAAN73.6266
Inclination0.0389
Eccentricity0.0002934
Argument of Perigee293.9253
Mean Anonmoly355.1571
Mean Motion1.00272265
Decay Rate1.36E-06
L11 42907U 17046A 18317.73581602 .00000136 00000-0 00000+0 0 9991
L22 42907 0.0389 73.6266 0002934 293.9253 355.1571 1.00272265 4595

Live tracking and technical data element details for COSMOS 2520 (NORAD 42907). COSMOS 2520 can be tracked NOW for your location showing map with azimuth and elevation plus other details from your city location.

Track the satellite on the map from your city or location and see movement details for azimuth, elevation, latitude, longitude, range, height, and movement on the map or in text.







IsCatalogInMostPopularTable: catalog: 42907, numindb: 141
Update: records affected: 1



GetName: 42907 COSMOS 2520

Hit Count: updated at: Wed, 14 Nov 2018 11:51:10 GMT